• In Russia
  • List of Countries
  • For 7 days
  • Water Temperature
  • Satellite Maps
  • Weather Map
  • Weather Widgets
  • user-avatar
    Login

    Hourly Weather Botogol

    Today, 18 January, Friday

    Time Temperature Precipitation Wind Pressure Humidity
    00:00 -25°C° 0 mm 2 mps 621 mmHg 86%
    01:00 -25°C° 0 mm 2 mps 621 mmHg 87%
    02:00 -25°C° 0 mm 2 mps 621 mmHg 87%
    03:00 -25°C° 0 mm 2 mps 621 mmHg 87%
    04:00 -26°C° 0 mm 2 mps 621 mmHg 88%
    05:00 -26°C° 0 mm 2 mps 621 mmHg 88%
    06:00 -26°C° 0 mm 2 mps 621 mmHg 88%
    07:00 -25°C° 0 mm 2 mps 621 mmHg 89%
    08:00 -25°C° 0 mm 2 mps 622 mmHg 88%
    09:00 -24°C° 0 mm 2 mps 622 mmHg 87%
    10:00 -23°C° 0 mm 2 mps 622 mmHg 86%
    11:00 -21°C° 0 mm 2 mps 623 mmHg 84%
    12:00 -19°C° 0 mm 2 mps 623 mmHg 82%
    13:00 -18°C° 0 mm 2 mps 624 mmHg 80%
    14:00 -19°C° 0 mm 2 mps 623 mmHg 83%
    15:00 -20°C° 0 mm 2 mps 623 mmHg 85%
    16:00 -19°C° 0 mm 1 mps 623 mmHg 88%
    17:00 -23°C° 0 mm 2 mps 623 mmHg 88%
    18:00 -24°C° 0 mm 2 mps 623 mmHg 88%
    19:00 -25°C° 0 mm 2 mps 623 mmHg 88%
    20:00 -25°C° 0 mm 2 mps 623 mmHg 88%
    21:00 -25°C° 0 mm 2 mps 623 mmHg 89%
    22:00 -25°C° 0 mm 2 mps 623 mmHg 89%
    23:00 -26°C° 0 mm 2 mps 623 mmHg 89%

    Tomorrow, 19 January, Saturday

    Time Temperature Precipitation Wind Pressure Humidity
    00:00 -26°C° 0 mm 2 mps 624 mmHg 88%
    01:00 -26°C° 0 mm 2 mps 624 mmHg 88%
    02:00 -26°C° 0 mm 2 mps 623 mmHg 86%
    03:00 -25°C° 0 mm 2 mps 623 mmHg 84%
    04:00 -25°C° 0 mm 2 mps 623 mmHg 81%
    05:00 -25°C° 0 mm 2 mps 623 mmHg 78%
    06:00 -25°C° 0 mm 2 mps 623 mmHg 75%
    07:00 -25°C° 0 mm 2 mps 623 mmHg 72%
    08:00 -24°C° 0 mm 3 mps 624 mmHg 71%
    09:00 -23°C° 0 mm 3 mps 624 mmHg 69%
    10:00 -22°C° 0 mm 3 mps 624 mmHg 68%
    11:00 -19°C° 0 mm 3 mps 624 mmHg 68%
    12:00 -17°C° 0 mm 3 mps 624 mmHg 67%
    13:00 -15°C° 0 mm 3 mps 624 mmHg 67%
    14:00 -15°C° 0 mm 3 mps 624 mmHg 67%
    15:00 -16°C° 0 mm 3 mps 624 mmHg 68%
    16:00 -17°C° 0 mm 3 mps 623 mmHg 68%
    17:00 -17°C° 0 mm 3 mps 623 mmHg 66%
    18:00 -18°C° 0 mm 3 mps 623 mmHg 65%
    19:00 -19°C° 0 mm 3 mps 623 mmHg 63%
    20:00 -19°C° 0 mm 3 mps 622 mmHg 61%
    21:00 -19°C° 0 mm 3 mps 622 mmHg 59%
    22:00 -19°C° 0 mm 3 mps 622 mmHg 57%
    23:00 -19°C° 0 mm 3 mps 621 mmHg 55%

    Day after tomorrow, 20 January, Sunday

    Time Temperature Precipitation Wind Pressure Humidity
    00:00 -21°C° 0 mm 3 mps 621 mmHg 53%
    01:00 -21°C° 0 mm 3 mps 621 mmHg 51%
    02:00 -21°C° 0 mm 3 mps 621 mmHg 50%
    03:00 -21°C° 0 mm 3 mps 621 mmHg 49%
    04:00 -21°C° 0 mm 3 mps 621 mmHg 48%
    05:00 -21°C° 0 mm 3 mps 621 mmHg 47%
    06:00 -21°C° 0 mm 3 mps 621 mmHg 46%
    07:00 -21°C° 0 mm 3 mps 621 mmHg 45%
    08:00 -19°C° 0 mm 3 mps 621 mmHg 47%
    09:00 -18°C° 0 mm 3 mps 622 mmHg 49%
    10:00 -17°C° 0 mm 3 mps 622 mmHg 51%
    11:00 -16°C° 0 mm 3 mps 622 mmHg 54%
    12:00 -14°C° 0 mm 3 mps 622 mmHg 56%
    13:00 -12°C° 0 mm 3 mps 622 mmHg 59%
    14:00 -13°C° 0 mm 3 mps 622 mmHg 58%
    15:00 -14°C° 0 mm 3 mps 621 mmHg 58%
    16:00 -15°C° 0 mm 3 mps 621 mmHg 58%
    17:00 -17°C° 0 mm 3 mps 620 mmHg 56%
    18:00 -18°C° 0 mm 3 mps 620 mmHg 54%
    19:00 -19°C° 0 mm 3 mps 620 mmHg 52%
    20:00 -19°C° 0 mm 3 mps 620 mmHg 49%
    21:00 -19°C° 0 mm 3 mps 619 mmHg 47%
    22:00 -19°C° 0 mm 3 mps 619 mmHg 44%
    23:00 -19°C° 0 mm 3 mps 619 mmHg 43%

    21 January, Monday

    Time Temperature Precipitation Wind Pressure Humidity
    00:00 -19°C° 0 mm 3 mps 619 mmHg 41%
    01:00 -19°C° 0 mm 3 mps 619 mmHg 39%
    02:00 -18°C° 0 mm 3 mps 618 mmHg 39%
    03:00 -18°C° 0 mm 3 mps 618 mmHg 40%
    04:00 -18°C° 0 mm 3 mps 618 mmHg 40%
    05:00 -18°C° 0 mm 3 mps 618 mmHg 41%
    06:00 -18°C° 0 mm 3 mps 618 mmHg 41%
    07:00 -18°C° 0 mm 3 mps 618 mmHg 41%
    08:00 -16°C° 0 mm 2 mps 618 mmHg 45%
    09:00 -15°C° 0 mm 2 mps 619 mmHg 48%
    10:00 -14°C° 0 mm 2 mps 619 mmHg 51%
    11:00 -12°C° 0 mm 2 mps 619 mmHg 52%
    12:00 -10°C° 0 mm 2 mps 619 mmHg 54%
    13:00 -8°C° 0 mm 2 mps 619 mmHg 55%
    14:00 -9°C° 0 mm 2 mps 619 mmHg 55%
    15:00 -10°C° 0 mm 2 mps 618 mmHg 55%
    16:00 -12°C° 0 mm 2 mps 618 mmHg 54%
    17:00 -13°C° 0 mm 2 mps 618 mmHg 52%
    18:00 -14°C° 0 mm 2 mps 618 mmHg 49%
    19:00 -16°C° 0 mm 3 mps 617 mmHg 47%
    20:00 -16°C° 0 mm 3 mps 617 mmHg 46%
    21:00 -16°C° 0 mm 3 mps 617 mmHg 45%
    22:00 -17°C° 0 mm 3 mps 617 mmHg 44%
    23:00 -17°C° 0 mm 3 mps 617 mmHg 42%

    22 January, Tuesday

    Time Temperature Precipitation Wind Pressure Humidity
    00:00 -17°C° 0 mm 3 mps 616 mmHg 40%
    01:00 -16°C° 0 mm 2 mps 616 mmHg 38%
    02:00 -16°C° 0 mm 2 mps 616 mmHg 37%
    03:00 -16°C° 0 mm 2 mps 616 mmHg 36%
    04:00 -17°C° 0 mm 2 mps 616 mmHg 35%
    05:00 -17°C° 0 mm 2 mps 616 mmHg 34%
    06:00 -17°C° 0 mm 2 mps 616 mmHg 32%
    07:00 -18°C° 0 mm 2 mps 616 mmHg 31%
    08:00 -17°C° 0 mm 2 mps 617 mmHg 36%
    09:00 -16°C° 0 mm 2 mps 618 mmHg 40%
    10:00 -13°C° 0 mm 1 mps 619 mmHg 45%
    11:00 -11°C° 0 mm 1 mps 619 mmHg 48%
    12:00 -10°C° 0 mm 1 mps 619 mmHg 51%
    13:00 -9°C° 0 mm 1 mps 620 mmHg 54%
    14:00 -12°C° 0 mm 2 mps 620 mmHg 57%
    15:00 -12°C° 0 mm 2 mps 620 mmHg 60%
    16:00 -13°C° 0 mm 2 mps 620 mmHg 63%
    17:00 -14°C° 0 mm 2 mps 620 mmHg 67%
    18:00 -15°C° 0 mm 2 mps 621 mmHg 71%
    19:00 -16°C° 0 mm 3 mps 621 mmHg 75%
    20:00 -16°C° 0 mm 2 mps 621 mmHg 77%
    21:00 -17°C° 0 mm 2 mps 621 mmHg 79%
    22:00 -18°C° 0 mm 2 mps 621 mmHg 81%
    23:00 -19°C° 0 mm 2 mps 622 mmHg 83%

    23 January, Wednesday

    Time Temperature Precipitation Wind Pressure Humidity
    00:00 -20°C° 0 mm 2 mps 622 mmHg 85%
    01:00 -21°C° 0 mm 2 mps 622 mmHg 87%
    02:00 -21°C° 0 mm 2 mps 622 mmHg 88%
    03:00 -23°C° 0 mm 2 mps 623 mmHg 89%
    04:00 -23°C° 0 mm 2 mps 623 mmHg 90%
    05:00 -24°C° 0 mm 2 mps 623 mmHg 89%
    06:00 -24°C° 0 mm 2 mps 623 mmHg 88%
    07:00 -24°C° 0 mm 2 mps 623 mmHg 87%
    08:00 -23°C° 0 mm 2 mps 624 mmHg 84%
    09:00 -21°C° 0 mm 2 mps 624 mmHg 80%
    10:00 -20°C° 0 mm 2 mps 625 mmHg 77%
    11:00 -18°C° 0 mm 2 mps 625 mmHg 72%
    12:00 -17°C° 0 mm 2 mps 625 mmHg 68%
    13:00 -15°C° 0 mm 2 mps 625 mmHg 64%
    14:00 -16°C° 0 mm 2 mps 625 mmHg 65%
    15:00 -15°C° 0 mm 1 mps 625 mmHg 66%
    16:00 -15°C° 0 mm 1 mps 625 mmHg 67%
    17:00 -18°C° 0 mm 2 mps 625 mmHg 63%
    18:00 -19°C° 0 mm 2 mps 625 mmHg 59%
    19:00 -20°C° 0 mm 2 mps 625 mmHg 55%
    20:00 -20°C° 0 mm 2 mps 624 mmHg 54%
    21:00 -21°C° 0 mm 2 mps 624 mmHg 52%
    22:00 -21°C° 0 mm 2 mps 624 mmHg 50%
    23:00 -21°C° 0 mm 2 mps 624 mmHg 49%
    Show more